Wind_Speed
1 1 1 1 1 1 2 3 4 4 4 4 4 4 3 3 2 2 2 2 2 2 3 3 3 4 4 4 4 4 4 5 5 5 4 4 4 5 6 6 5 6 6
3 2 2 2 2 2 3 4 4 5 5 6 5 5 5 5 4 4 3 3 2 2 2 2 2 2 3 3 3 3 3 4 4 4 4 3 3 4 5 5 5 5 5
4 4 4 4 3 4 4 5 6 6 6 6 6 7 7 6 6 6 5 5 4 4 3 3 3 3 3 3 3 3 3 2 3 3 2 2 2 3 4 4 4 4 4
5 5 5 5 5 5 5 7 7 8 7 8 8 8 8 8 8 8 7 7 6 6 6 5 5 4 4 4 4 3 3 2 2 2 1 1 1 1 2 3 4 4 3
6 6 6 6 6 7 7 8 9 9 9 9 9 10 10 10 10 10 9 9 9 8 8 7 7 6 6 6 6 5 5 4 3 2 2 1 1 1 1 2 3 3 3
7 7 8 8 8 8 9 9 10 11 11 11 11 11 12 12 12 12 12 11 11 10 10 9 9 9 8 8 8 7 7 6 5 4 4 3 2 2 2 2 3 3 3
7 8 8 8 9 10 10 11 12 12 13 13 13 13 13 14 14 14 14 13 13 12 12 11 11 11 11 11 10 10 9 8 7 6 6 5 4 4 3 3 3 3 3
7 7 8 9 10 11 12 13 13 13 14 14 15 15 15 16 16 16 15 15 14 14 14 14 14 13 13 13 12 12 12 11 10 9 8 8 7 6 5 5 5 5 5
7 9 10 11 12 12 13 14 14 15 15 16 16 17 17 18 19 19 18 17 17 16 17 17 16 15 15 14 14 14 14 13 12 12 11 10 10 9 8 8 7 7 7
9 11 11 13 14 14 15 16 16 17 17 18 18 18 18 19 20 20 20 20 20 19 19 19 18 17 17 16 16 16 16 15 14 13 13 13 13 12 11 11 10 9 9
10 12 12 14 15 16 17 17 18 19 19 19 20 21 21 21 21 20 20 21 21 21 21 21 20 20 19 18 18 18 18 18 17 16 15 15 15 15 15 14 13 12 12
13 13 14 14 16 18 19 20 20 21 21 21 21 23 23 23 22 21 21 22 21 21 21 22 22 22 21 21 20 20 20 21 20 19 17 17 17 17 18 18 17 16 15
14 15 15 15 18 20 20 21 21 22 21 22 23 24 24 24 24 22 23 23 22 22 21 22 23 23 23 23 22 22 22 22 22 20 18 19 19 19 19 20 20 19 18
16 17 17 19 20 21 22 22 22 23 23 23 24 25 24 24 23 24 23 23 22 21 20 20 22 24 25 24 23 23 22 22 23 22 19 19 21 22 21 22 22 22 21
17 19 19 20 22 22 23 22 23 23 23 23 22 22 23 22 22 23 22 22 21 20 20 21 23 24 25 26 25 24 22 22 22 22 21 20 21 23 23 24 24 24 24
17 19 20 21 22 22 23 22 22 22 22 22 20 19 21 22 21 21 21 21 21 21 22 23 23 23 23 25 25 24 25 25 24 24 24 23 23 23 23 24 25 25 25
18 19 20 21 22 22 22 21 21 21 21 20 20 19 20 21 21 22 21 21 22 23 24 24 24 24 23 23 24 25 25 25 25 25 25 25 24 23 24 24 25 26 25
19 20 21 20 21 21 20 20 21 21 21 20 19 20 21 22 22 22 23 23 23 23 24 25 25 24 24 24 24 24 25 25 25 25 26 26 26 26 26 26 26 27 27
18 20 20 20 20 20 20 20 20 20 20 20 20 20 21 22 22 23 23 23 23 24 24 24 24 24 24 25 25 25 25 25 25 26 26 27 28 28 27 28 27 28 29
18 18 18 18 19 19 19 19 19 19 19 20 20 20 21 21 22 23 24 23 24 24 24 24 25 25 26 26 27 27 27 26 27 27 27 28 29 29 29 29 29 29 30
17 17 17 17 18 18 18 19 19 19 19 20 20 20 21 21 22 23 24 24 24 24 25 25 25 26 26 27 27 28 28 28 29 29 29 29 29 30 31 31 31 30 30
15 16 16 17 17 17 17 18 18 19 20 20 20 21 21 22 22 23 23 24 25 25 25 25 26 26 27 27 28 28 29 30 31 30 31 31 31 31 32 33 33 32 32
14 14 14 15 16 17 17 17 18 19 19 20 20 20 21 22 22 23 24 24 25 25 25 25 26 26 27 28 28 28 29 29 31 31 31 31 32 32 33 34 34 35 34
12 13 14 15 15 16 16 16 18 19 19 20 20 21 21 22 23 23 24 25 25 25 26 26 27 27 28 28 29 29 29 30 31 31 32 32 32 32 33 35 35 35 36
12 12 13 14 15 16 17 18 18 19 20 20 21 22 23 23 24 24 24 25 26 26 27 27 28 29 29 30 31 31 31 32 32 32 33 33 33 33 34 35 36 37 37
11 12 13 14 15 16 17 18 19 20 21 21 22 23 24 25 25 25 25 26 27 28 28 29 30 30 31 32 32 33 33 33 33 34 34 34 35 35 36 36 36 37 38
Wind_Direction
284 292 298 296 300 316 315 313 319 317 315 315 315 319 325 331 339 353 5 21 36 45 48 50 52 49 47 44 42 42 45 47 51 54 60 66 76 88 94 99 104 107 114
306 311 301 300 307 314 315 310 313 313 309 309 304 301 303 308 311 314 314 318 322 335 348 1 10 17 22 22 23 27 30 33 38 44 52 63 74 88 97 101 106 110 117
311 313 304 300 304 308 306 305 308 308 304 304 301 295 295 297 300 301 298 296 295 295 300 308 317 327 334 342 346 353 2 7 14 27 32 57 74 92 102 107 110 113 122
304 310 306 305 306 307 306 303 304 303 300 296 295 292 291 292 293 293 292 290 288 286 286 289 293 299 304 307 311 314 317 320 328 341 336 26 78 110 116 118 118 122 128
295 304 305 304 309 310 307 303 301 302 299 294 291 289 289 289 289 289 290 288 287 287 286 285 287 291 292 291 291 292 295 293 288 286 291 287 265 185 157 145 136 133 137
295 302 305 306 308 309 308 305 302 301 299 296 291 289 289 288 288 286 287 287 287 287 286 284 284 286 287 285 282 279 278 279 278 270 271 269 259 247 216 188 171 162 161
291 299 305 307 306 306 306 304 301 300 297 295 294 291 289 288 288 284 284 283 283 283 283 282 283 282 283 283 280 275 271 270 270 264 258 260 256 249 238 221 208 199 193
291 301 307 307 307 305 305 304 302 298 294 292 292 291 291 290 289 285 281 279 278 279 279 279 280 280 280 279 277 274 272 269 267 264 258 256 255 249 244 236 228 223 218
300 304 306 305 305 305 303 303 299 295 291 290 292 291 290 289 287 285 282 277 275 275 276 276 277 277 276 274 272 271 271 269 266 264 260 256 254 251 247 240 237 234 231
302 305 306 307 307 306 304 302 299 296 292 290 289 290 290 288 285 280 280 277 272 272 272 273 274 274 272 271 269 268 268 268 266 264 260 257 253 250 248 245 241 238 236
297 303 306 306 307 306 303 300 297 296 293 289 288 287 286 285 280 277 275 275 270 268 268 269 270 271 270 269 269 267 265 267 266 263 257 256 254 250 247 246 243 240 238
298 303 309 304 305 306 302 297 296 297 293 289 286 284 284 284 283 278 276 276 272 266 265 265 267 268 267 267 269 267 263 263 264 262 256 254 253 252 250 245 242 240 238
294 301 303 303 306 306 302 298 296 297 293 288 287 288 287 285 283 279 280 278 274 267 263 266 267 267 266 266 266 266 264 263 262 261 258 256 255 254 251 245 241 241 240
291 299 303 303 304 305 303 299 297 296 292 288 288 288 287 287 286 283 281 279 277 276 273 276 276 271 269 268 266 265 263 262 262 261 261 258 255 253 251 247 243 242 242
287 295 299 299 300 300 300 298 296 296 292 290 289 290 289 288 287 286 285 281 278 279 280 281 279 274 268 266 266 264 263 261 262 262 261 257 255 252 250 248 247 244 243
286 291 294 296 298 297 297 298 296 296 295 290 290 291 290 288 288 286 286 284 283 280 280 282 281 278 272 268 265 263 262 263 262 261 260 257 256 251 249 248 247 245 244
287 289 293 297 297 296 296 297 295 297 296 295 293 291 292 290 289 287 287 287 287 284 282 283 282 280 276 272 269 267 264 263 261 260 260 257 256 253 251 250 247 245 245
287 288 294 298 298 297 295 296 298 297 297 297 296 296 293 291 290 289 290 288 289 289 285 283 281 280 277 275 271 270 267 264 262 260 259 256 255 254 252 251 249 246 245
289 292 295 296 298 297 296 296 298 299 300 299 300 302 298 294 294 292 291 292 290 289 287 284 281 280 277 275 272 271 269 267 265 262 260 258 256 256 253 251 251 249 246
288 293 296 295 298 300 299 299 300 298 301 304 305 304 302 300 298 296 295 294 292 290 288 285 282 280 278 276 275 273 271 268 267 263 262 262 259 256 253 252 251 251 248
288 291 295 298 299 302 302 301 304 305 304 306 307 305 304 304 301 298 297 296 294 291 289 287 285 282 280 278 276 274 273 270 267 265 263 262 260 257 254 252 251 252 249
285 291 295 299 303 305 303 305 308 309 309 310 310 309 308 307 305 303 301 298 297 294 291 289 287 284 282 279 277 274 272 270 269 267 265 262 260 258 256 254 253 252 250
288 293 298 304 308 311 311 312 313 314 315 315 314 313 311 310 308 307 304 302 299 297 295 292 289 287 285 282 279 277 275 272 270 268 266 263 261 259 257 256 253 251 250
293 299 305 311 314 316 320 321 319 318 317 317 317 316 314 312 311 309 306 304 301 299 297 294 292 289 287 284 282 279 277 275 272 270 267 265 262 260 258 256 254 252 251
301 307 311 315 319 321 323 324 323 321 320 319 319 318 317 314 312 310 308 305 302 300 298 295 293 290 288 286 283 281 278 275 273 271 269 267 265 261 259 257 255 253 251
313 316 318 319 321 323 324 324 324 323 323 322 321 320 318 316 314 312 308 305 303 300 298 296 294 292 290 288 285 282 280 277 274 271 270 268 267 264 262 258 256 254 252
Height
5909 5909 5909 5909 5909 5909 5909 5909 5909 5909 5908 5908 5907 5907 5906 5906 5905 5905 5905 5904 5904 5903 5903 5903 5902 5902 5902 5902 5901 5901 5901 5901 5901 5901 5901 5901 5901 5902 5902 5902 5903 5903 5904
5908 5908 5909 5909 5909 5909 5909 5909 5909 5909 5908 5908 5908 5907 5907 5906 5906 5906 5905 5905 5904 5904 5904 5904 5903 5903 5903 5902 5902 5902 5902 5902 5902 5902 5902 5902 5902 5903 5903 5903 5904 5904 5905
5908 5908 5908 5908 5908 5908 5908 5908 5908 5908 5908 5908 5907 5907 5907 5906 5906 5906 5905 5905 5905 5904 5904 5904 5904 5903 5903 5903 5903 5902 5902 5902 5903 5903 5903 5903 5903 5904 5904 5904 5905 5906 5906
5907 5908 5908 5908 5908 5908 5908 5908 5908 5907 5907 5907 5907 5906 5906 5906 5906 5905 5905 5905 5905 5904 5904 5904 5904 5904 5903 5903 5903 5903 5903 5903 5903 5903 5904 5904 5904 5904 5905 5905 5906 5907 5907
5906 5906 5906 5906 5907 5907 5907 5907 5907 5906 5906 5906 5906 5906 5905 5905 5905 5905 5905 5904 5904 5904 5904 5903 5903 5903 5903 5903 5903 5903 5903 5903 5903 5903 5904 5904 5904 5905 5905 5906 5907 5907 5908
5905 5905 5905 5905 5906 5906 5906 5906 5905 5905 5905 5905 5905 5905 5904 5904 5904 5904 5904 5903 5903 5903 5903 5903 5902 5902 5902 5902 5902 5902 5902 5902 5903 5903 5903 5904 5904 5905 5906 5906 5907 5908 5909
5904 5904 5904 5904 5904 5904 5904 5904 5904 5904 5903 5903 5903 5903 5903 5903 5903 5902 5902 5902 5902 5902 5902 5901 5901 5901 5901 5901 5901 5901 5901 5901 5902 5902 5903 5903 5904 5905 5906 5906 5907 5908 5909
5903 5903 5903 5903 5903 5903 5903 5902 5902 5902 5902 5901 5901 5901 5901 5901 5901 5900 5900 5900 5900 5900 5900 5900 5899 5899 5899 5899 5899 5899 5899 5900 5900 5901 5902 5902 5903 5904 5905 5906 5907 5908 5909
5901 5901 5901 5901 5901 5901 5901 5901 5900 5900 5900 5899 5899 5899 5898 5898 5898 5898 5898 5897 5897 5897 5897 5897 5897 5897 5897 5897 5897 5897 5898 5898 5898 5899 5900 5901 5902 5903 5904 5905 5906 5907 5909
5899 5899 5899 5899 5899 5899 5898 5898 5897 5897 5897 5896 5896 5896 5895 5895 5894 5894 5894 5894 5894 5894 5894 5894 5895 5895 5894 5894 5895 5895 5895 5895 5896 5897 5898 5899 5900 5901 5902 5903 5905 5906 5908
5896 5895 5896 5896 5896 5896 5896 5895 5894 5894 5893 5893 5893 5892 5892 5891 5890 5889 5889 5889 5890 5890 5890 5891 5891 5891 5891 5891 5892 5892 5892 5892 5893 5894 5895 5896 5897 5898 5900 5901 5903 5904 5906
5892 5892 5892 5893 5893 5894 5893 5892 5892 5891 5890 5889 5889 5888 5888 5887 5886 5885 5885 5885 5885 5885 5886 5886 5887 5887 5888 5888 5888 5888 5888 5889 5889 5890 5891 5891 5893 5895 5897 5898 5900 5902 5904
5889 5889 5890 5890 5890 5890 5890 5889 5888 5887 5886 5885 5885 5884 5883 5882 5881 5881 5881 5881 5880 5880 5881 5882 5882 5883 5883 5883 5884 5884 5884 5885 5885 5886 5887 5888 5888 5891 5893 5895 5897 5899 5901
5886 5887 5887 5887 5887 5887 5886 5885 5884 5883 5882 5881 5880 5879 5878 5878 5877 5877 5877 5877 5876 5876 5876 5877 5877 5878 5878 5879 5879 5878 5878 5880 5880 5882 5883 5884 5885 5887 5889 5891 5893 5895 5897
5884 5884 5884 5884 5884 5883 5882 5881 5880 5879 5878 5877 5876 5874 5874 5874 5873 5872 5872 5871 5871 5871 5871 5872 5872 5872 5873 5873 5874 5874 5874 5875 5876 5877 5878 5879 5880 5882 5884 5886 5888 5890 5893
5880 5880 5880 5880 5880 5879 5878 5877 5876 5874 5873 5872 5871 5870 5869 5869 5868 5868 5868 5867 5867 5867 5867 5867 5867 5867 5867 5867 5868 5869 5870 5871 5871 5872 5873 5874 5874 5876 5879 5881 5883 5885 5888
5876 5877 5877 5877 5876 5875 5874 5873 5872 5870 5868 5867 5867 5867 5866 5865 5864 5864 5863 5863 5863 5862 5862 5861 5861 5861 5862 5862 5862 5863 5864 5865 5866 5867 5868 5869 5870 5871 5873 5876 5878 5880 5882
5873 5873 5874 5873 5872 5871 5870 5869 5868 5867 5865 5864 5863 5863 5862 5861 5860 5859 5859 5859 5858 5857 5857 5856 5856 5856 5856 5856 5856 5857 5857 5858 5860 5861 5862 5863 5865 5866 5868 5870 5872 5874 5877
5870 5870 5870 5869 5869 5867 5866 5865 5864 5863 5862 5861 5860 5859 5858 5857 5856 5855 5854 5854 5853 5852 5852 5851 5850 5850 5850 5850 5850 5850 5851 5852 5854 5855 5856 5857 5858 5860 5862 5864 5865 5868 5870
5868 5868 5867 5867 5866 5864 5863 5862 5861 5860 5859 5857 5856 5855 5854 5853 5852 5850 5849 5849 5848 5847 5846 5845 5844 5844 5844 5844 5844 5844 5845 5845 5846 5848 5849 5850 5851 5853 5855 5857 5859 5861 5863
5865 5865 5865 5864 5863 5861 5860 5859 5857 5856 5855 5854 5853 5851 5850 5849 5847 5846 5844 5843 5842 5841 5840 5839 5838 5838 5837 5837 5837 5837 5838 5838 5839 5840 5841 5843 5844 5845 5848 5850 5852 5854 5856
5863 5863 5863 5861 5860 5859 5857 5856 5855 5853 5851 5850 5849 5847 5846 5844 5842 5841 5840 5838 5836 5835 5834 5833 5832 5831 5831 5830 5830 5830 5831 5831 5831 5832 5833 5835 5836 5838 5840 5842 5844 5847 5849
5861 5861 5860 5859 5858 5856 5854 5853 5851 5850 5848 5847 5845 5843 5842 5840 5838 5836 5835 5833 5831 5829 5828 5827 5826 5825 5824 5823 5822 5823 5823 5823 5823 5824 5825 5826 5828 5830 5831 5833 5836 5839 5841
5859 5859 5858 5857 5855 5854 5852 5850 5848 5847 5845 5843 5841 5839 5837 5835 5834 5832 5830 5827 5825 5824 5822 5821 5819 5818 5817 5816 5815 5815 5815 5815 5815 5815 5816 5817 5819 5821 5822 5825 5827 5830 5833
5857 5856 5856 5854 5853 5851 5849 5847 5846 5843 5842 5840 5837 5835 5833 5831 5829 5827 5824 5822 5820 5818 5816 5814 5812 5811 5809 5808 5807 5806 5806 5806 5806 5806 5807 5808 5809 5811 5813 5815 5817 5820 5823
5854 5854 5853 5852 5850 5848 5846 5845 5843 5840 5838 5836 5833 5831 5829 5826 5824 5822 5819 5817 5814 5812 5809 5807 5805 5803 5801 5800 5798 5798 5797 5797 5797 5797 5798 5798 5799 5801 5803 5805 5808 5810 5813